Location: Newark
(34.1333°N, 7.9667°W)
Time: 14:35:39
(UTC+00:00)

Transit 2A - Pass Details

Date: 16 June 2021
Orbit: 598 x 960 km, 66.7° (Epoch: 23 July)

Event Time Altitude Azimuth Distance (km) Brightness Sun altitude
Rises 02:58:37 0° 335° (NNW) 3,089 9.5 -22.9°
Reaches altitude 10° 03:00:52 10° 338° (NNW) 2,219 8.8 -22.6°
Maximum altitude 03:05:57 74° 64° (ENE) 813 6.2 -21.9°
Drops below altitude 10° 03:11:35 10° 149° (SSE) 2,453 8.4 -21.2°
Enters shadow 03:14:07 - 151° (SSE) 3,420 9.2 -20.9°
Sets 03:14:10 0° 151° (SSE) 3,439 - -20.9°
